Total_Precipitation_Accumulation
1.71 1.87 1.80 1.70 1.62 1.67 1.60 1.45 1.28 1.29 1.25 1.08 0.95 0.96 0.99 1.02 1.02 1.14 1.28 1.15 1.09 1.24 1.52 1.69 1.77 1.69 1.61 1.60 1.54 1.43 1.28 1.15 1.03 0.90 0.76 0.66 0.60 0.58 0.59 0.60 0.61 0.59 0.59
2.13 2.27 2.25 2.10 1.91 1.93 1.85 1.72 1.62 1.61 1.53 1.48 1.36 1.24 1.13 1.21 1.21 1.24 1.42 1.41 1.26 1.26 1.54 1.88 2.03 1.99 1.90 1.85 1.71 1.58 1.50 1.45 1.38 1.27 1.11 0.93 0.81 0.74 0.72 0.71 0.71 0.68 0.64
2.53 2.54 2.56 2.37 2.21 2.17 2.21 2.11 2.01 1.95 1.73 1.62 1.55 1.46 1.39 1.32 1.33 1.36 1.56 1.81 1.68 1.61 1.67 1.73 1.82 1.93 2.03 2.15 2.11 1.95 1.83 1.71 1.63 1.58 1.48 1.33 1.17 1.04 0.95 0.89 0.86 0.81 0.75
2.68 2.78 2.78 2.64 2.47 2.35 2.50 2.60 2.49 2.36 2.16 2.08 1.98 1.82 1.63 1.59 1.61 1.73 1.82 1.98 2.14 2.04 1.98 1.79 1.67 1.75 1.98 2.19 2.28 2.24 2.07 1.88 1.77 1.75 1.72 1.64 1.45 1.30 1.17 1.11 1.07 1.00 0.91
3.04 3.06 3.00 2.98 2.93 2.93 2.91 2.75 2.77 2.62 2.60 2.51 2.14 1.99 1.78 1.73 1.82 1.83 1.96 2.01 2.11 2.12 2.10 1.89 1.74 1.70 1.85 2.12 2.24 2.37 2.33 2.22 2.09 1.93 1.83 1.80 1.70 1.54 1.34 1.23 1.18 1.12 1.03
3.46 3.55 3.49 3.41 3.38 3.33 3.17 3.12 3.06 2.87 2.70 2.57 2.21 2.02 1.84 1.74 1.72 1.78 1.82 1.80 1.76 1.75 1.76 1.82 1.95 1.82 1.84 1.90 1.91 2.06 2.26 2.37 2.23 2.07 1.97 1.91 1.79 1.64 1.47 1.35 1.27 1.22 1.18
4.14 4.12 3.97 3.73 3.57 3.57 3.47 3.40 3.22 3.05 2.82 2.62 2.52 2.25 1.87 1.64 1.63 1.59 1.59 1.58 1.56 1.58 1.63 1.66 1.68 1.66 1.67 1.71 1.65 1.74 1.91 2.12 2.19 2.20 2.17 2.08 1.95 1.79 1.64 1.51 1.44 1.38 1.31
4.44 4.38 4.38 4.29 4.04 3.86 3.64 3.42 3.32 3.18 2.84 2.64 2.60 2.53 2.16 1.81 1.51 1.32 1.28 1.27 1.30 1.40 1.39 1.36 1.41 1.49 1.53 1.59 1.62 1.74 1.81 1.88 2.02 2.09 2.04 1.99 1.93 1.90 1.86 1.75 1.64 1.56 1.48
4.73 4.57 4.42 4.17 3.97 3.83 3.69 3.48 3.26 3.12 2.88 2.69 2.58 2.63 2.44 2.13 1.71 1.42 1.24 1.16 1.12 1.17 1.18 1.18 1.21 1.27 1.33 1.38 1.44 1.61 1.72 1.72 1.81 1.86 1.86 1.84 1.82 1.80 1.82 1.82 1.79 1.74 1.68
4.33 4.08 3.94 3.84 3.69 3.40 3.16 3.00 2.84 2.65 2.51 2.39 2.34 2.23 2.11 1.97 1.92 1.79 1.58 1.44 1.34 1.31 1.26 1.17 1.17 1.25 1.29 1.36 1.51 1.60 1.62 1.63 1.74 1.75 1.73 1.73 1.74 1.77 1.80 1.83 1.82 1.83 1.84
3.76 3.49 3.36 3.18 2.96 2.62 2.28 2.16 2.19 2.22 2.18 2.10 2.07 2.04 2.00 1.88 1.80 1.78 1.75 1.64 1.54 1.46 1.39 1.39 1.40 1.40 1.36 1.36 1.42 1.58 1.56 1.43 1.51 1.59 1.66 1.70 1.70 1.72 1.74 1.75 1.75 1.74 1.76
3.23 2.85 2.52 2.22 2.00 1.83 1.61 1.55 1.57 1.67 1.81 1.87 1.94 1.93 1.87 1.82 1.81 1.82 1.77 1.72 1.67 1.58 1.45 1.38 1.39 1.40 1.35 1.34 1.37 1.52 1.33 1.26 1.20 1.23 1.34 1.41 1.43 1.44 1.49 1.58 1.66 1.72 1.82
2.55 2.26 1.95 1.75 1.58 1.47 1.37 1.30 1.28 1.29 1.38 1.51 1.61 1.69 1.75 1.78 1.76 1.79 1.90 1.92 1.77 1.65 1.53 1.43 1.36 1.34 1.33 1.31 1.32 1.39 1.24 1.16 1.08 1.03 1.02 1.06 1.09 1.14 1.21 1.34 1.43 1.49 1.55
1.87 1.60 1.38 1.23 1.14 1.12 1.09 1.09 1.09 1.10 1.13 1.20 1.30 1.41 1.51 1.57 1.59 1.60 1.64 1.72 1.78 1.71 1.53 1.43 1.34 1.25 1.17 1.08 1.11 1.09 0.97 1.02 0.93 0.88 0.86 0.86 0.86 0.87 0.89 0.91 0.95 0.97 0.98
1.20 1.04 0.93 0.90 0.84 0.81 0.81 0.80 0.81 0.85 0.92 0.97 1.01 1.07 1.17 1.24 1.30 1.34 1.40 1.45 1.56 1.59 1.47 1.27 1.21 1.14 0.98 0.85 0.89 0.73 0.69 0.75 0.68 0.64 0.63 0.63 0.65 0.65 0.65 0.67 0.71 0.74 0.73
0.84 0.77 0.69 0.64 0.59 0.56 0.55 0.56 0.58 0.59 0.64 0.72 0.76 0.81 0.90 0.97 1.06 1.12 1.21 1.27 1.28 1.31 1.32 1.14 0.98 0.91 0.82 0.71 0.75 0.59 0.56 0.59 0.51 0.49 0.49 0.51 0.54 0.59 0.59 0.59 0.61 0.63 0.65
0.59 0.52 0.47 0.44 0.43 0.43 0.43 0.48 0.51 0.53 0.54 0.56 0.59 0.63 0.68 0.72 0.81 0.88 0.89 0.92 1.00 1.04 1.07 1.00 0.85 0.75 0.70 0.66 0.64 0.60 0.56 0.52 0.47 0.48 0.46 0.47 0.48 0.49 0.51 0.51 0.51 0.55 0.60
0.44 0.39 0.36 0.35 0.36 0.36 0.36 0.37 0.39 0.42 0.47 0.48 0.49 0.51 0.53 0.57 0.63 0.67 0.70 0.74 0.82 0.89 0.91 0.94 0.87 0.76 0.71 0.68 0.63 0.63 0.49 0.41 0.40 0.44 0.41 0.37 0.38 0.37 0.39 0.39 0.39 0.39 0.42
0.41 0.37 0.33 0.32 0.31 0.30 0.29 0.29 0.30 0.33 0.39 0.43 0.42 0.44 0.46 0.47 0.49 0.49 0.54 0.62 0.70 0.79 0.88 0.89 0.84 0.76 0.68 0.61 0.61 0.54 0.47 0.51 0.38 0.36 0.33 0.30 0.30 0.29 0.28 0.27 0.27 0.27 0.28
0.31 0.30 0.28 0.28 0.27 0.25 0.24 0.25 0.26 0.29 0.33 0.36 0.34 0.34 0.34 0.36 0.39 0.44 0.47 0.57 0.66 0.79 0.86 0.85 0.76 0.68 0.64 0.60 0.66 0.63 0.56 0.53 0.43 0.30 0.29 0.26 0.26 0.25 0.24 0.25 0.23 0.21 0.21
0.28 0.24 0.21 0.21 0.18 0.17 0.17 0.19 0.23 0.27 0.33 0.32 0.30 0.27 0.24 0.24 0.28 0.34 0.39 0.48 0.61 0.75 0.78 0.77 0.71 0.66 0.61 0.63 0.63 0.58 0.60 0.55 0.44 0.33 0.34 0.30 0.31 0.35 0.40 0.36 0.29 0.25 0.20
0.23 0.20 0.18 0.20 0.19 0.15 0.17 0.18 0.19 0.25 0.32 0.33 0.31 0.27 0.22 0.19 0.21 0.26 0.32 0.39 0.50 0.61 0.69 0.74 0.69 0.67 0.63 0.63 0.65 0.63 0.66 0.65 0.60 0.41 0.41 0.35 0.30 0.41 0.46 0.45 0.38 0.27 0.20
0.27 0.25 0.25 0.26 0.28 0.22 0.15 0.14 0.16 0.22 0.28 0.29 0.29 0.30 0.25 0.21 0.26 0.31 0.30 0.30 0.33 0.36 0.48 0.65 0.74 0.71 0.71 0.74 0.82 0.79 0.75 0.74 0.71 0.53 0.58 0.55 0.43 0.49 0.39 0.38 0.43 0.35 0.27
0.33 0.32 0.32 0.32 0.34 0.25 0.16 0.11 0.14 0.21 0.26 0.24 0.24 0.27 0.33 0.33 0.27 0.28 0.28 0.32 0.38 0.40 0.43 0.50 0.67 0.71 0.67 0.70 0.79 0.82 0.81 0.78 0.73 0.67 0.69 0.71 0.51 0.49 0.42 0.59 0.62 0.53 0.41
0.36 0.35 0.38 0.41 0.41 0.29 0.18 0.14 0.17 0.25 0.28 0.25 0.21 0.21 0.22 0.25 0.22 0.25 0.32 0.44 0.49 0.52 0.41 0.47 0.58 0.64 0.65 0.68 0.69 0.74 0.86 0.93 0.88 0.75 0.67 0.70 0.62 0.53 0.55 0.75 0.74 0.73 0.60
0.35 0.32 0.37 0.45 0.42 0.32 0.21 0.17 0.20 0.25 0.30 0.31 0.32 0.30 0.22 0.18 0.21 0.24 0.32 0.45 0.54 0.54 0.57 0.75 0.87 0.86 0.81 0.78 0.72 0.78 0.92 0.95 0.95 0.91 0.72 0.71 0.76 0.69 0.72 0.80 0.86 0.82 0.75